Location: Newark
(22.3060°N, 114.2134°E)
Time: 04:36:09
(UTC+00:00)

Courier 1B Rocket - Visible Passes

Search period start: 06 August 2021 00:00
Search period end: 16 August 2021 00:00
Orbit: 920 x 1202 km, 28.2° (Epoch: 05 August)

Date Brightness Start Highest point End Pass type
(mag) Time Alt. Az. Time Alt. Az. Time Alt. Az.
06 Aug 6.5 12:03:39 10° SSW 12:09:14 21° SSE 12:10:47 20° SE visible
06 Aug 7.1 13:55:11 10° SW 13:57:13 19° SW 13:57:13 19° SW visible
06 Aug 7.6 17:56:52 12° ENE 17:56:52 12° ENE 17:57:14 10° ENE visible
06 Aug 5.1 19:43:17 54° NW 19:44:47 73° NNE 19:51:08 10° E visible
06 Aug 5.3 21:32:00 10° W 21:38:09 46° SSW 21:44:06 10° SE visible
07 Aug 5.7 12:54:11 10° SW 13:00:55 44° SSE 13:00:55 44° SSE visible
07 Aug 6.4 18:46:35 33° ENE 18:46:35 33° ENE 18:50:01 10° E visible
07 Aug 4.9 20:33:00 23° W 20:37:12 66° SSW 20:43:27 10° ESE visible
08 Aug 6.1 11:53:32 10° SSW 12:00:18 32° SSE 12:04:33 19° ESE visible
08 Aug 6.1 13:46:07 10° WSW 13:50:59 42° WSW 13:50:59 42° WSW visible
08 Aug 4.9 19:36:26 83° SE 19:36:26 83° SE 19:42:36 10° ESE visible
08 Aug 5.8 21:23:41 10° W 21:29:21 31° SSW 21:34:48 10° SSE visible
09 Aug 5.3 12:44:54 10° SW 12:52:37 62° SSE 12:54:30 49° ESE visible
09 Aug 7.2 14:38:51 10° W 14:40:55 20° W 14:40:55 20° W visible
09 Aug 7.0 18:40:00 19° E 18:40:00 19° E 18:41:35 10° E visible
09 Aug 5.2 20:26:26 36° WSW 20:28:26 46° SSW 20:34:29 10° SE visible
10 Aug 5.7 11:43:57 10° SW 11:51:20 46° SSE 11:57:54 13° E visible
10 Aug 5.4 13:37:16 10° WSW 13:44:18 72° W 13:44:18 72° W visible
10 Aug 5.9 19:30:05 37° SE 19:30:05 37° SE 19:33:52 10° ESE visible
10 Aug 6.2 21:16:32 12° WSW 21:20:29 20° SSW 21:25:03 10° SSE visible
11 Aug 5.3 12:35:53 10° WSW 12:43:45 82° SSE 12:47:32 34° ENE visible
11 Aug 6.8 14:30:13 10° W 14:33:56 30° WNW 14:33:56 30° WNW visible
11 Aug 5.8 20:20:13 31° SSW 20:20:13 31° SSW 20:25:12 10° SSE visible
12 Aug 5.5 11:34:43 10° SW 11:42:24 63° SSE 11:50:05 10° ENE visible
12 Aug 5.5 13:28:35 10° W 13:36:25 68° NNW 13:37:01 65° NNE visible
12 Aug 7.8 15:23:16 10° WNW 15:23:24 11° WNW 15:23:24 11° WNW visible
12 Aug 7.1 19:23:55 15° SE 19:23:55 15° SE 19:24:54 10° SE visible
12 Aug 6.7 21:10:21 12° SW 21:11:36 13° SW 21:14:15 10° S visible
13 Aug 5.4 12:27:05 10° WSW 12:34:56 81° NNW 12:39:58 25° ENE visible
13 Aug 6.5 14:21:38 10° W 14:26:21 37° WNW 14:26:21 37° WNW visible
13 Aug 6.8 20:14:01 15° S 20:14:01 15° S 20:15:27 10° SSE visible
14 Aug 5.5 11:25:45 10° WSW 11:33:32 83° SSE 11:41:23 10° ENE visible
14 Aug 5.7 13:20:00 10° W 13:27:44 60° N 13:29:10 52° NNE visible
14 Aug 7.7 15:14:34 10° WNW 15:15:32 14° WNW 15:15:32 14° WNW visible
15 Aug 5.7 12:18:26 10° W 12:26:12 68° NNW 12:31:54 20° ENE visible
15 Aug 6.4 14:13:01 10° WNW 14:18:16 41° NW 14:18:16 41° NW visible
